{"data":{"norad_id":65454,"epoch":"2026-09-20T22:00:03.000096Z","epoch_age_seconds":78905,"freshness":"FRESH","line1":"1 65454U 25194W   26263.91670139  .00078577  00000+0  32839-2 0  9990","line2":"2 65454  97.2843 113.5190 0001826  79.6602 158.7005 15.23290258  5688","mean_motion":15.23290258,"eccentricity":0.0001826,"inclination_deg":97.2843,"raan_deg":113.519,"arg_perigee_deg":79.6602,"mean_anomaly_deg":158.7005,"bstar":0.0032839,"rev_number":568,"period_min":94.532213571079,"perigee_km":494.66905791086,"apogee_km":497.17946508356,"semimajor_km":6874.0612614972,"source":"CELESTRAK","updated_at":"2026-09-21T09:00:35.612724Z"}}